Temperature
9 9 9 8 8 8 7 6 5 5 5 5 4 4 4 3 2 1 -1 -1 -2 -3 -3 -3 -3 -3 -3 -4 -4 -5 -5 -5 -5 -5 -5 -5 -4 -3 -2 -1 -1 -1 -1 -1
7 9 8 7 8 7 6 6 5 4 4 4 5 4 3 2 0 -2 -2 -3 -4 -4 -4 -4 -4 -5 -5 -5 -6 -6 -6 -6 -6 -5 -5 -5 -4 -3 -3 -2 -2 -2 -2 -2
5 7 6 6 6 5 5 5 4 3 3 4 3 3 2 1 -2 -3 -3 -4 -5 -6 -6 -6 -7 -7 -7 -7 -7 -7 -7 -7 -6 -5 -5 -5 -5 -4 -4 -4 -4 -3 -3 -3
4 4 2 5 5 5 4 4 4 4 4 3 2 1 1 -1 -4 -4 -5 -6 -7 -7 -7 -7 -7 -8 -8 -8 -8 -8 -8 -7 -7 -6 -6 -6 -6 -6 -5 -5 -5 -5 -5 -5
2 2 3 5 4 4 3 3 5 3 3 2 1 -0 -0 -3 -5 -6 -6 -7 -8 -8 -8 -8 -8 -9 -9 -9 -8 -8 -8 -8 -8 -8 -7 -7 -7 -7 -7 -6 -6 -6 -6 -7
3 1 2 4 4 5 4 2 4 3 2 0 -1 -2 -2 -4 -6 -6 -7 -8 -9 -9 -9 -9 -10 -10 -10 -10 -10 -9 -9 -9 -9 -9 -8 -8 -8 -8 -8 -8 -7 -7 -8 -8
2 1 2 4 5 4 1 1 3 2 1 -1 -3 -3 -5 -6 -7 -7 -8 -9 -9 -9 -10 -11 -11 -11 -11 -10 -10 -10 -10 -9 -10 -9 -9 -9 -9 -9 -9 -9 -8 -8 -8 -8
3 1 1 5 4 3 2 3 2 0 -2 -3 -4 -5 -6 -7 -8 -8 -9 -10 -10 -10 -11 -11 -11 -11 -11 -11 -11 -10 -10 -10 -10 -10 -10 -10 -10 -10 -10 -9 -9 -9 -9 -9
3 2 4 5 4 4 3 2 0 -2 -3 -5 -6 -7 -7 -8 -9 -9 -10 -11 -11 -11 -12 -12 -12 -12 -12 -12 -11 -11 -11 -11 -11 -11 -11 -11 -10 -10 -10 -10 -10 -10 -10 -10
2 3 5 5 4 4 2 1 -1 -3 -5 -6 -7 -8 -8 -9 -10 -10 -11 -11 -11 -12 -12 -12 -12 -12 -12 -12 -11 -11 -12 -12 -12 -12 -12 -12 -11 -11 -11 -11 -11 -11 -11 -11
2 3 4 4 3 2 1 -1 -2 -5 -6 -7 -8 -9 -9 -10 -11 -11 -11 -11 -12 -12 -13 -13 -13 -13 -13 -13 -13 -13 -13 -13 -13 -13 -13 -13 -13 -12 -12 -12 -12 -12 -12 -12
3 4 3 3 2 1 -0 -2 -4 -6 -7 -8 -9 -9 -10 -10 -11 -11 -11 -11 -12 -13 -13 -13 -13 -13 -14 -14 -14 -14 -14 -14 -14 -14 -14 -14 -14 -14 -13 -13 -12 -12 -13 -13
3 3 2 2 2 0 -2 -3 -5 -7 -8 -9 -9 -9 -10 -10 -11 -11 -11 -12 -13 -13 -14 -14 -14 -14 -14 -14 -14 -15 -15 -15 -14 -15 -15 -15 -15 -15 -14 -14 -14 -14 -14 -13
2 2 2 1 0 -1 -2 -4 -6 -8 -9 -9 -9 -9 -10 -10 -11 -12 -12 -13 -13 -14 -14 -14 -15 -15 -15 -15 -15 -15 -15 -15 -15 -15 -15 -15 -15 -15 -15 -15 -15 -15 -15 -14
2 1 1 0 -0 -2 -3 -5 -7 -8 -9 -8 -9 -9 -10 -11 -11 -13 -13 -13 -14 -14 -15 -15 -15 -15 -15 -15 -15 -15 -15 -15 -15 -15 -15 -15 -15 -15 -15 -15 -15 -15 -15 -15
1 1 -0 -1 -2 -3 -4 -6 -7 -8 -8 -9 -9 -10 -11 -11 -12 -13 -13 -13 -14 -15 -15 -15 -15 -15 -15 -15 -15 -15 -15 -15 -15 -15 -15 -15 -15 -15 -15 -15 -15 -15 -15 -15
-0 -1 -1 -2 -4 -5 -6 -7 -8 -8 -9 -9 -10 -11 -11 -12 -12 -13 -13 -14 -15 -15 -16 -15 -15 -15 -15 -15 -15 -15 -15 -15 -15 -15 -16 -15 -15 -15 -15 -15 -15 -15 -15 -15
-1 -1 -3 -3 -4 -5 -6 -7 -8 -8 -9 -10 -11 -11 -11 -12 -13 -13 -13 -14 -15 -15 -15 -15 -15 -15 -15 -15 -15 -15 -15 -15 -15 -16 -16 -15 -15 -15 -15 -15 -15 -15 -15 -15
-1 -2 -3 -4 -5 -6 -7 -8 -8 -9 -10 -10 -11 -11 -12 -13 -13 -13 -13 -14 -15 -15 -15 -15 -15 -15 -15 -15 -14 -15 -15 -15 -15 -15 -15 -15 -15 -15 -15 -15 -15 -15 -15 -15
-2 -3 -3 -4 -6 -7 -8 -8 -9 -10 -10 -10 -11 -11 -12 -12 -13 -13 -13 -14 -15 -15 -15 -15 -15 -14 -14 -14 -14 -14 -15 -15 -15 -15 -15 -15 -15 -15 -15 -15 -15 -15 -15 -15
-3 -4 -4 -6 -6 -7 -8 -9 -9 -10 -10 -11 -11 -12 -12 -13 -13 -13 -14 -14 -14 -14 -15 -15 -14 -14 -15 -14 -14 -14 -14 -15 -15 -15 -15 -15 -15 -15 -15 -15 -15 -15 -15 -15
-3 -4 -5 -6 -7 -8 -9 -9 -10 -10 -11 -11 -12 -12 -12 -13 -13 -13 -14 -14 -13 -14 -14 -13 -13 -14 -15 -14 -14 -14 -15 -15 -16 -16 -16 -16 -16 -16 -15 -15 -15 -15 -15 -15
-4 -5 -6 -7 -8 -8 -9 -9 -10 -10 -11 -11 -12 -12 -13 -13 -13 -13 -12 -12 -12 -13 -13 -13 -14 -14 -14 -14 -14 -14 -15 -15 -16 -16 -16 -16 -16 -16 -16 -16 -15 -15 -15 -15
-4 -5 -7 -7 -8 -8 -9 -10 -10 -11 -11 -11 -12 -12 -12 -12 -12 -12 -12 -12 -12 -12 -12 -13 -14 -14 -14 -13 -13 -13 -13 -14 -14 -15 -15 -15 -15 -15 -15 -15 -15 -15 -15 -15
-5 -6 -7 -7 -8 -9 -9 -10 -10 -10 -11 -12 -12 -12 -12 -12 -11 -11 -11 -11 -11 -12 -12 -12 -12 -12 -11 -11 -12 -12 -12 -13 -13 -14 -13 -13 -13 -13 -14 -14 -15 -15 -15 -16
-6 -6 -7 -8 -8 -9 -10 -10 -10 -11 -11 -11 -11 -11 -11 -11 -11 -11 -11 -11 -11 -11 -11 -11 -10 -11 -11 -11 -11 -10 -10 -11 -11 -11 -11 -11 -11 -11 -12 -12 -13 -14 -15 -15
-6 -7 -8 -8 -9 -9 -10 -10 -10 -11 -11 -11 -11 -11 -10 -10 -10 -10 -10 -10 -10 -10 -10 -10 -10 -10 -10 -10 -10 -9 -9 -10 -10 -11 -11 -11 -11 -11 -11 -10 -11 -12 -14 -15
Wind_Speed
9 12 10 10 11 10 8 8 8 11 15 16 15 16 18 21 24 21 21 23 24 25 22 19 18 17 16 15 16 16 15 15 16 17 16 15 13 12 11 7 4 5 7 8
8 7 7 13 9 4 6 8 10 14 15 12 14 16 19 22 20 20 22 23 24 24 23 20 18 17 16 16 16 15 15 15 16 16 15 15 14 12 10 10 11 11 9 9
5 11 12 5 8 8 6 8 10 13 10 14 17 20 21 22 17 20 22 21 21 21 20 18 17 16 16 15 14 14 14 15 16 17 14 14 15 15 13 12 13 13 12 11
5 7 5 5 9 8 6 9 10 9 14 15 17 19 18 14 19 20 19 19 18 18 17 17 17 16 14 13 13 13 13 14 15 17 15 13 14 14 11 10 9 9 9 8
3 5 9 4 6 7 8 13 8 13 16 18 21 20 9 16 18 16 16 16 16 15 14 15 15 15 12 10 10 10 11 11 11 13 14 13 13 12 9 7 6 6 6 7
2 3 5 4 5 8 8 7 12 15 16 18 20 17 11 17 17 15 15 15 15 15 14 14 14 15 12 11 11 11 10 9 9 10 10 10 10 8 7 6 5 4 4 5
4 5 6 4 7 9 6 7 12 14 15 15 14 11 14 16 14 13 14 14 15 14 11 11 13 13 12 12 13 13 11 10 10 10 10 10 10 8 8 7 6 5 4 4
3 3 6 6 7 5 7 8 11 10 10 13 14 14 14 14 14 14 14 15 15 13 12 10 11 11 11 13 14 15 12 10 10 10 10 10 9 9 8 9 8 7 6 5
2 4 6 6 6 6 6 8 8 9 10 11 12 11 13 13 12 12 13 13 13 12 11 10 9 9 11 12 15 15 14 11 10 11 10 10 8 8 8 8 8 9 8 7
4 6 8 8 6 7 8 7 8 8 9 8 8 11 12 12 11 12 12 11 10 11 11 11 9 9 10 12 14 14 14 13 11 9 9 10 10 7 6 6 6 8 8 8
5 8 6 6 9 8 7 7 8 9 9 7 8 9 9 10 10 10 10 10 9 9 9 11 12 11 10 11 13 12 12 12 12 11 8 7 9 9 8 4 6 6 5 6
3 5 6 9 9 8 7 6 7 9 9 7 7 9 9 7 7 7 8 8 9 9 9 10 12 12 12 12 12 13 13 12 10 10 9 8 7 9 14 15 17 15 11 9
4 7 7 9 6 6 4 6 7 8 7 7 7 8 8 7 7 7 8 9 9 10 9 10 12 12 12 12 13 13 14 13 10 11 10 10 9 9 9 11 16 17 17 16
5 6 6 6 6 4 6 5 4 5 6 6 7 7 7 7 7 8 8 8 9 10 10 10 11 12 12 12 14 13 11 13 12 9 8 8 8 8 8 9 9 8 12 16
6 6 7 10 6 5 6 5 5 5 6 7 6 6 7 8 9 9 8 9 10 11 10 10 12 13 11 12 14 12 11 8 7 6 7 7 7 7 6 7 8 8 7 9
7 8 8 8 8 8 8 7 5 5 6 6 6 7 7 8 8 8 9 10 10 11 11 10 11 12 11 11 11 9 8 17 15 8 6 7 8 7 6 6 6 7 7 6
6 7 6 6 6 6 5 5 5 4 5 5 6 7 7 7 8 10 10 10 8 8 9 10 12 14 11 10 9 7 7 10 18 11 7 7 7 6 6 6 6 6 5 9
6 5 3 3 4 4 5 6 5 4 4 4 6 6 7 8 9 9 9 10 8 8 9 11 12 10 10 11 9 6 7 7 7 7 7 7 8 7 6 6 7 7 5 8
5 5 6 7 6 6 5 4 2 2 3 5 6 7 7 7 7 8 9 9 8 9 11 13 19 12 11 14 14 6 7 8 9 9 8 13 11 7 7 7 7 7 6 6
2 4 7 7 5 4 4 2 1 4 5 5 6 7 7 8 8 8 8 7 6 8 12 14 12 10 11 14 18 7 8 9 10 10 10 10 10 10 9 10 9 8 8 7
3 5 8 7 5 4 4 5 5 4 4 5 5 6 7 8 8 7 7 7 8 11 14 19 12 11 13 18 19 9 10 11 12 12 12 12 12 12 11 11 11 12 10 9
4 5 7 7 6 6 5 5 4 3 4 5 5 6 7 8 8 8 7 6 8 17 14 10 10 17 22 24 11 12 13 15 15 14 14 15 15 15 14 14 13 14 12 10
5 6 6 6 7 7 5 4 3 3 3 4 4 5 6 7 7 7 9 8 9 18 14 10 19 28 32 19 13 15 17 18 18 18 18 17 17 17 17 17 15 15 12 9
6 7 6 7 7 6 4 2 1 0 1 4 4 4 5 6 6 5 7 15 19 21 13 19 29 31 29 16 15 17 18 18 19 19 19 19 18 17 16 16 15 14 13 13
7 6 6 7 6 5 5 4 3 4 5 3 2 3 4 4 5 8 9 11 19 20 14 20 28 30 20 15 17 18 19 19 20 20 20 19 19 18 17 16 15 14 12 11
6 6 5 4 5 5 4 3 2 1 3 3 2 3 4 5 6 7 8 11 14 20 16 13 16 19 16 17 19 20 19 20 21 19 20 20 20 20 17 15 16 12 10 8
6 5 5 5 4 4 3 3 3 2 2 3 4 4 5 6 7 8 10 11 12 13 13 13 14 15 16 18 19 19 19 19 20 19 18 17 16 16 15 13 6 4 4 4
Wind_Direction
297 295 291 295 300 302 299 302 303 320 328 334 349 345 341 341 339 344 346 346 345 341 336 339 346 351 353 353 349 345 345 347 346 343 339 337 336 338 345 0 45 84 98 94
284 280 301 290 295 337 10 353 332 327 320 340 342 341 340 337 343 344 345 345 345 342 345 352 356 354 354 353 349 346 347 348 349 347 347 350 355 358 8 27 39 48 63 79
296 338 325 332 59 44 21 339 326 318 331 344 340 341 336 334 351 347 345 344 345 347 349 352 354 352 353 351 349 348 349 350 352 351 355 7 11 18 29 37 40 39 41 49
307 341 328 46 68 48 359 320 321 353 344 342 342 332 325 2 0 347 345 345 346 346 348 352 351 349 348 348 348 347 349 352 355 356 4 13 15 16 25 33 38 39 37 39
346 320 290 85 52 16 336 311 3 0 344 342 339 325 333 16 357 346 347 348 346 347 349 348 345 339 335 339 339 340 345 347 350 355 1 7 11 11 13 26 37 40 38 26
304 298 279 53 33 353 328 297 6 355 344 342 337 326 333 352 346 347 350 349 347 346 347 348 342 337 336 340 340 340 338 340 344 351 352 357 1 3 360 6 21 38 36 25
228 255 270 47 6 356 333 316 346 348 346 338 326 317 324 336 340 346 348 350 350 348 346 340 334 336 342 347 347 341 341 346 349 353 351 354 353 354 354 356 359 5 1 10
201 241 272 24 9 352 310 333 344 354 348 330 320 323 330 335 339 346 350 351 350 346 340 331 328 339 347 350 346 343 344 351 352 353 353 357 350 353 356 358 357 357 1 14
278 255 329 359 325 316 1 354 360 353 343 331 325 329 333 335 342 347 347 348 346 341 332 326 330 346 350 348 346 347 346 347 351 352 350 348 348 358 358 4 6 2 6 15
294 293 299 306 331 6 39 24 4 356 338 334 332 331 334 337 343 346 344 344 340 333 329 328 333 347 352 349 346 347 346 345 345 350 352 352 350 356 0 2 5 0 1 2
258 277 305 350 346 5 44 21 6 347 336 347 338 333 338 341 346 346 341 335 330 326 328 335 341 344 353 351 347 346 344 344 344 346 345 351 351 346 348 348 346 352 353 351
275 359 337 317 338 35 27 18 9 341 339 349 346 342 346 346 346 336 325 322 323 323 333 341 342 344 352 351 347 345 345 342 342 345 346 350 348 348 353 355 357 0 355 349
324 330 316 316 359 21 29 40 11 342 342 351 4 3 354 343 340 336 328 324 323 328 341 347 344 344 346 345 346 346 343 341 347 348 348 350 350 348 347 352 356 356 353 349
326 334 320 313 308 9 82 63 17 353 8 23 15 6 353 340 335 328 318 317 330 341 348 346 343 341 344 344 346 344 341 344 350 343 342 342 342 341 342 345 345 343 345 344
2 358 305 296 314 47 68 46 25 20 23 20 13 3 347 334 320 311 323 344 348 345 342 344 344 341 345 346 346 340 339 335 337 333 333 334 331 329 332 336 336 332 327 335
329 313 309 337 8 35 42 40 31 26 22 9 3 346 327 314 319 345 356 351 344 341 344 346 338 334 339 340 336 332 329 337 342 334 324 322 318 319 321 317 318 318 321 323
316 308 321 336 354 25 57 68 58 41 20 5 344 327 328 342 353 352 345 336 330 332 338 335 326 327 327 321 314 314 312 322 333 330 309 302 299 296 296 298 299 303 307 322
322 311 339 35 64 69 81 77 65 47 21 348 340 348 355 359 350 336 330 326 324 330 327 322 316 326 320 313 306 300 304 305 307 304 302 299 294 288 287 286 286 290 291 312
338 22 62 76 79 90 94 92 89 58 30 17 5 1 357 354 335 324 324 324 333 334 322 315 330 339 319 313 317 299 301 303 304 300 296 299 302 288 283 280 279 279 282 292
10 88 101 95 87 103 120 149 141 82 53 24 17 6 348 332 323 321 321 316 315 309 312 319 330 325 319 313 320 305 300 298 297 296 294 288 284 281 278 277 275 273 271 270
81 115 125 131 140 129 86 60 63 64 43 34 24 353 327 317 316 316 316 313 310 315 322 327 328 314 313 316 321 309 299 296 295 292 289 286 282 279 276 275 274 274 270 266
133 140 146 155 143 106 80 71 72 58 37 32 16 350 335 327 322 318 310 300 313 323 326 315 311 310 317 320 314 308 304 302 300 297 293 289 286 283 279 276 272 270 266 258
127 138 144 143 128 113 94 72 57 49 36 15 353 337 326 314 315 324 327 319 318 321 326 312 314 319 323 327 319 315 311 308 305 302 298 294 289 284 279 274 269 265 260 252
119 113 115 114 116 119 126 146 170 49 295 287 283 284 295 310 315 311 307 318 326 323 320 317 325 329 333 330 320 316 313 310 307 304 300 296 291 286 280 274 268 262 257 254
120 127 132 136 140 143 149 174 215 250 261 266 309 334 323 315 307 310 313 314 321 324 322 325 330 332 332 322 321 318 315 312 311 311 308 305 300 294 286 278 269 263 258 253
148 155 160 151 133 138 161 180 156 61 4 357 352 336 321 311 306 310 316 317 317 325 329 325 326 329 330 327 325 323 322 320 318 316 311 309 304 300 293 281 267 256 249 243
134 133 132 122 129 141 136 122 109 82 26 356 342 336 326 321 322 324 325 325 325 328 330 331 332 334 333 332 330 330 329 326 324 323 323 324 327 329 328 315 289 226 199 189
Height
1551 1548 1547 1545 1546 1546 1547 1547 1551 1547 1545 1541 1538 1535 1532 1528 1524 1518 1514 1509 1504 1497 1490 1482 1476 1470 1464 1457 1451 1444 1437 1431 1425 1419 1413 1408 1403 1399 1397 1395 1395 1396 1397 1398
1552 1544 1546 1545 1543 1544 1547 1550 1550 1550 1548 1543 1540 1536 1533 1529 1524 1519 1514 1509 1503 1496 1489 1482 1475 1469 1463 1457 1451 1445 1439 1432 1427 1421 1416 1412 1407 1403 1400 1398 1398 1398 1399 1399
1560 1551 1551 1546 1551 1552 1555 1555 1555 1555 1551 1544 1540 1537 1534 1529 1524 1519 1514 1508 1502 1496 1490 1483 1476 1470 1463 1458 1452 1446 1441 1435 1430 1425 1420 1416 1412 1409 1406 1404 1403 1402 1401 1401
1566 1564 1571 1559 1554 1556 1557 1555 1554 1552 1549 1545 1542 1538 1534 1528 1523 1518 1513 1507 1501 1495 1489 1483 1476 1470 1464 1458 1453 1447 1442 1437 1432 1428 1424 1420 1416 1414 1412 1409 1407 1406 1405 1405
1576 1575 1566 1555 1558 1558 1559 1556 1551 1551 1547 1544 1540 1533 1528 1526 1523 1519 1513 1507 1501 1495 1489 1482 1476 1470 1464 1459 1453 1448 1443 1439 1435 1430 1427 1423 1420 1417 1415 1413 1411 1410 1409 1407
1572 1580 1577 1563 1561 1558 1558 1554 1550 1549 1547 1544 1539 1533 1527 1525 1521 1516 1511 1506 1500 1494 1488 1481 1475 1470 1465 1460 1454 1449 1445 1441 1437 1433 1429 1426 1423 1420 1417 1415 1413 1411 1409 1407
1575 1577 1568 1561 1559 1559 1564 1562 1553 1549 1547 1544 1541 1538 1532 1525 1520 1516 1511 1505 1499 1493 1487 1482 1476 1471 1466 1460 1455 1451 1448 1443 1439 1434 1430 1427 1423 1420 1417 1415 1412 1410 1408 1407
1569 1577 1576 1560 1558 1561 1560 1554 1551 1548 1546 1543 1538 1534 1529 1524 1519 1514 1509 1503 1498 1492 1487 1483 1477 1472 1467 1461 1457 1452 1449 1444 1440 1435 1432 1428 1424 1421 1418 1415 1412 1411 1409 1408
1567 1568 1560 1559 1559 1558 1555 1553 1549 1546 1542 1538 1534 1530 1526 1522 1518 1513 1508 1503 1497 1492 1487 1483 1479 1473 1468 1463 1457 1452 1448 1445 1440 1436 1432 1429 1425 1422 1418 1416 1413 1411 1409 1408
1564 1561 1560 1559 1558 1556 1553 1550 1547 1544 1540 1535 1532 1528 1524 1520 1516 1512 1507 1502 1497 1492 1488 1483 1479 1474 1469 1463 1457 1452 1448 1444 1440 1436 1432 1428 1425 1423 1419 1416 1413 1411 1409 1407
1562 1560 1558 1558 1558 1555 1550 1547 1544 1541 1537 1533 1530 1526 1523 1519 1514 1510 1506 1501 1496 1492 1488 1484 1479 1474 1468 1462 1457 1452 1447 1443 1439 1435 1431 1428 1424 1422 1420 1417 1415 1412 1409 1407
1561 1559 1559 1557 1555 1551 1548 1544 1541 1537 1534 1531 1528 1525 1521 1517 1513 1509 1504 1500 1495 1492 1488 1483 1478 1473 1468 1462 1457 1452 1447 1442 1438 1434 1431 1427 1424 1420 1418 1417 1414 1411 1409 1407
1558 1557 1556 1554 1552 1548 1545 1541 1539 1535 1533 1530 1526 1523 1519 1516 1512 1508 1504 1499 1495 1491 1487 1482 1477 1472 1467 1462 1457 1452 1447 1443 1439 1435 1431 1427 1424 1420 1417 1414 1412 1410 1408 1406
1556 1555 1553 1551 1548 1545 1541 1538 1535 1533 1531 1528 1525 1521 1518 1514 1511 1507 1502 1498 1494 1490 1485 1481 1476 1472 1467 1462 1457 1452 1447 1443 1439 1435 1431 1428 1424 1421 1418 1414 1411 1408 1406 1404
1554 1554 1552 1548 1545 1542 1538 1535 1533 1531 1529 1526 1523 1519 1516 1513 1509 1506 1502 1497 1493 1488 1484 1480 1475 1471 1467 1461 1456 1452 1447 1444 1440 1435 1431 1428 1424 1421 1418 1415 1411 1408 1405 1402
1552 1550 1548 1545 1542 1538 1535 1532 1530 1528 1526 1524 1521 1518 1515 1512 1509 1505 1501 1496 1491 1487 1483 1479 1475 1471 1466 1461 1456 1452 1447 1444 1440 1435 1430 1427 1423 1420 1417 1413 1410 1407 1404 1401
1549 1546 1543 1540 1538 1535 1532 1529 1527 1526 1525 1523 1520 1517 1515 1512 1508 1504 1499 1494 1490 1486 1482 1478 1474 1470 1466 1461 1456 1451 1446 1442 1438 1433 1429 1425 1421 1418 1415 1411 1408 1405 1402 1399
1546 1543 1540 1537 1535 1532 1530 1528 1527 1525 1523 1521 1519 1517 1514 1511 1507 1502 1497 1493 1489 1485 1481 1477 1473 1469 1464 1459 1454 1450 1445 1440 1435 1430 1426 1421 1418 1415 1412 1409 1405 1402 1399 1397
1542 1539 1536 1534 1532 1530 1528 1527 1526 1524 1521 1520 1518 1516 1513 1510 1506 1502 1497 1492 1488 1483 1479 1475 1472 1468 1463 1457 1453 1448 1442 1437 1431 1426 1422 1418 1414 1410 1407 1404 1401 1398 1396 1393
1537 1535 1533 1531 1530 1528 1527 1526 1525 1523 1521 1519 1517 1515 1512 1509 1505 1501 1497 1493 1489 1483 1479 1475 1470 1465 1460 1455 1451 1445 1439 1433 1427 1421 1416 1412 1408 1404 1401 1398 1395 1392 1390 1388
1534 1532 1530 1529 1527 1526 1525 1525 1525 1524 1521 1518 1516 1514 1511 1508 1505 1501 1496 1491 1488 1482 1478 1474 1468 1463 1457 1453 1448 1441 1434 1427 1421 1415 1410 1405 1400 1396 1393 1390 1387 1385 1383 1381
1531 1530 1528 1527 1526 1525 1524 1524 1524 1523 1521 1518 1516 1514 1511 1508 1504 1500 1497 1492 1487 1482 1477 1472 1466 1460 1456 1450 1443 1435 1428 1421 1414 1408 1402 1396 1391 1387 1383 1379 1377 1375 1373 1372
1528 1527 1526 1525 1524 1524 1524 1524 1524 1523 1521 1519 1516 1514 1511 1508 1504 1500 1496 1492 1487 1482 1477 1471 1465 1459 1454 1446 1437 1429 1421 1413 1406 1399 1392 1386 1380 1375 1370 1366 1364 1363 1362 1362
1526 1525 1525 1524 1523 1523 1523 1524 1524 1523 1521 1519 1516 1514 1512 1508 1505 1502 1498 1493 1488 1482 1476 1470 1463 1456 1449 1441 1432 1424 1415 1406 1399 1391 1383 1375 1368 1362 1357 1353 1350 1349 1349 1350
1524 1523 1523 1522 1522 1523 1523 1523 1523 1523 1521 1519 1517 1515 1513 1509 1506 1503 1499 1494 1489 1482 1476 1468 1461 1454 1446 1438 1430 1421 1411 1403 1395 1387 1378 1368 1359 1351 1344 1340 1337 1336 1337 1340
1521 1521 1521 1521 1521 1522 1523 1523 1523 1523 1522 1520 1518 1516 1514 1511 1508 1504 1500 1495 1490 1483 1476 1467 1460 1453 1446 1438 1429 1420 1411 1402 1392 1383 1374 1365 1355 1346 1337 1330 1326 1326 1328 1332
1518 1519 1520 1520 1521 1522 1522 1523 1523 1522 1522 1520 1519 1517 1515 1512 1510 1506 1501 1496 1490 1483 1476 1469 1462 1455 1448 1440 1431 1422 1413 1403 1393 1384 1376 1367 1357 1347 1336 1328 1324 1322 1324 1327